Weather History for Fargo, ND

Change the Weather History Date:

Tuesday, May 1, 2012

  Actual Average Record
Temperature  
Mean Temperature 63 °F 52 °F  
Max Temperature 75 °F 65 °F 97 °F (1959)
Min Temperature 50 °F 39 °F 14 °F (1890)
Degree Days  
Heating Degree Days 2 13  
Month to date heating degree days 2 13  
Since 1 July heating degree days 6651 8469  
Cooling Degree Days 0 0  
Month to date cooling degree days 0 0  
Year to date cooling degree days 6 3  
Growing Degree Days 16 (Base 50)    
Moisture  
Dew Point 51 °F    
Average Humidity 61    
Maximum Humidity 78    
Minimum Humidity 44    
Precipitation  
Precipitation 0.01 in 0.07 in 1.22 in (1902)
Month to date precipitation 0.01 0.07  
Year to date precipitation 3.42 4.07  
Snow  
Snow 0.00 in 0.00 in 1.00 in (1909)
Month to date snowfall 0.0 0.0  
Since 1 July snowfall 27.0 50.4  
Snow Depth 0.00 in    
Sea Level Pressure  
Sea Level Pressure 29.53 in    
Wind  
Wind Speed 10 mph (SSE)    
Max Wind Speed 23 mph    
Max Gust Speed 31 mph    
Visibility 9 miles    
Events Rain    
T = Trace of Precipitation, MM = Missing Value Source: NWS Daily Summary

Daily Weather History Graph

Daily Weather History Graph

Search for Another Location

Airport:

Trip Planner

Search our weather history database for the weather conditions in past years. The results will help you decide how hot, cold, wet, or windy it might be!

Date:

Astronomy

May. 01, 2012 Rise Set
Actual Time 6:11 AM CDT 8:38 PM CDT
Civil Twilight 5:37 AM CDT 9:12 PM CDT
Nautical Twilight 4:54 AM CDT 9:55 PM CDT
Astronomical Twilight 4:06 AM CDT 10:44 PM CDT
Moon 3:25 PM CDT (5/1) 3:28 AM CDT (5/1)
Length of Visible Light 15h 35m
Length of Day
14h 27m
Waxing Gibbous, 74% of the Moon is Illuminated
May 1
Waxing Gibbous
May 5
Full
May 12
Last Quarter
May 20
New
May 28
First Quarter

Hourly Weather History & Observations

Time (CDT) Temp. Dew Point Humidity Pressure Visibility Wind Dir Wind Speed Gust Speed Precip Events Conditions
12:53 AM 59.0 °F 37.9 °F 46% 29.67 in 10.0 mi SE 10.4 mph - N/A   Clear
1:53 AM 57.9 °F 37.9 °F 47% 29.64 in 10.0 mi SE 10.4 mph - N/A   Partly Cloudy
2:53 AM 59.0 °F 41.0 °F 51% 29.62 in 10.0 mi SSE 11.5 mph - N/A   Mostly Cloudy
3:53 AM 59.0 °F 44.1 °F 58% 29.61 in 10.0 mi SSE 9.2 mph 20.7 mph 0.00 in Rain Light Rain
4:53 AM 57.9 °F 45.0 °F 62% 29.59 in 10.0 mi SE 18.4 mph 27.6 mph 0.01 in   Overcast
5:53 AM 57.0 °F 48.9 °F 74% 29.57 in 10.0 mi SSE 13.8 mph - N/A   Mostly Cloudy
6:53 AM 57.9 °F 50.0 °F 75% 29.57 in 10.0 mi SSE 16.1 mph 25.3 mph N/A   Overcast
7:53 AM 59.0 °F 51.8 °F 77% 29.56 in 9.0 mi SSE 16.1 mph 25.3 mph N/A   Overcast
8:03 AM 59.0 °F 51.8 °F 77% 29.55 in 9.0 mi SSE 18.4 mph 26.5 mph N/A   Overcast
8:53 AM 59.0 °F 52.0 °F 78% 29.54 in 8.0 mi SE 15.0 mph 21.9 mph N/A   Overcast
9:53 AM 61.0 °F 53.1 °F 75% 29.54 in 8.0 mi SSE 16.1 mph 21.9 mph N/A   Overcast
10:53 AM 62.1 °F 53.1 °F 72% 29.52 in 8.0 mi SSE 15.0 mph 27.6 mph N/A   Overcast
11:53 AM 62.1 °F 54.0 °F 75% 29.52 in 7.0 mi SSE 18.4 mph 26.5 mph N/A   Overcast
12:53 PM 64.9 °F 55.0 °F 70% 29.50 in 7.0 mi SSE 13.8 mph - N/A   Overcast
1:53 PM 70.0 °F 57.0 °F 63% 29.49 in 8.0 mi South 15.0 mph - N/A   Overcast
2:50 PM 71.6 °F 57.2 °F 60% 29.48 in 10.0 mi South 10.4 mph - N/A   Scattered Clouds
2:53 PM 72.0 °F 57.9 °F 61% 29.48 in 10.0 mi South 12.7 mph - N/A   Mostly Cloudy
3:53 PM 72.0 °F 57.9 °F 61% 29.48 in 10.0 mi South 10.4 mph - N/A   Mostly Cloudy
4:53 PM 73.0 °F 55.9 °F 55% 29.45 in 10.0 mi SSE 5.8 mph - N/A   Clear
5:53 PM 73.4 °F 57.2 °F 57% 29.45 in 10.0 mi SW 3.5 mph - N/A   Clear
6:53 PM 73.9 °F 55.9 °F 53% 29.43 in 10.0 mi SW 3.5 mph - N/A   Clear
7:53 PM 72.0 °F 57.0 °F 59% 29.44 in 10.0 mi Calm Calm - N/A   Clear
8:53 PM 69.1 °F 55.9 °F 63% 29.47 in 10.0 mi Calm Calm - N/A   Clear
9:53 PM 66.0 °F 55.9 °F 70% 29.48 in 10.0 mi SSE 6.9 mph - N/A   Scattered Clouds
10:53 PM 64.9 °F 48.9 °F 56% 29.51 in 10.0 mi NE 9.2 mph - N/A   Mostly Cloudy
11:53 PM 60.1 °F 46.9 °F 62% 29.54 in 10.0 mi Calm Calm - N/A   Clear